TimeBST,TemperatureF,Dew PointF,Humidity,Sea Level PressureIn,VisibilityMPH,Wind Direction,Wind SpeedMPH,Gust SpeedMPH,PrecipitationIn,Events,Conditions,WindDirDegrees,DateUTC
12:58 AM,58.5,49.5,72,29.90,6.2,NW,4.6,-,N/A,,Overcast,310,2013-08-18 23:58:00
1:58 AM,57.2,49.6,76,29.91,6.2,NW,4.6,-,N/A,,Overcast,310,2013-08-19 00:58:00
2:58 AM,55.8,50.2,82,29.92,6.2,West,4.6,-,N/A,,Overcast,280,2013-08-19 01:58:00
3:58 AM,53.8,48.6,82,29.94,6.2,WNW,5.8,-,N/A,,Scattered Clouds,290,2013-08-19 02:58:00
4:58 AM,54.9,50.0,84,29.95,6.2,West,5.8,-,N/A,,Overcast,270,2013-08-19 03:58:00
5:58 AM,55.4,50.9,85,29.97,6.2,West,4.6,-,N/A,,Overcast,270,2013-08-19 04:58:00
6:58 AM,55.6,51.8,87,29.99,6.2,WSW,4.6,-,N/A,,Overcast,250,2013-08-19 05:58:00
7:58 AM,58.5,52.2,80,30.02,6.2,West,8.1,-,N/A,,Mostly Cloudy,270,2013-08-19 06:58:00
8:58 AM,62.6,52.9,70,30.04,6.2,WNW,8.1,-,N/A,,Clear,300,2013-08-19 07:58:00
9:58 AM,65.3,53.2,65,30.07,6.2,NW,6.9,-,N/A,,Partly Cloudy,320,2013-08-19 08:58:00
10:58 AM,66.2,51.6,59,30.08,6.2,WNW,8.1,-,N/A,,Mostly Cloudy,300,2013-08-19 09:58:00
11:58 AM,67.3,51.3,56,30.10,6.2,WNW,5.8,-,N/A,,Overcast,300,2013-08-19 10:58:00
12:58 PM,68.0,49.3,51,30.12,6.2,WNW,11.5,-,N/A,,Mostly Cloudy,300,2013-08-19 11:58:00
1:58 PM,71.8,48.4,43,30.14,6.2,WNW,10.4,-,N/A,,Partly Cloudy,300,2013-08-19 12:58:00
2:58 PM,72.1,49.6,45,30.15,6.2,NW,10.4,-,N/A,,Scattered Clouds,320,2013-08-19 13:58:00
3:58 PM,68.7,49.1,50,30.16,6.2,NW,11.5,-,N/A,,Overcast,320,2013-08-19 14:58:00
4:58 PM,71.2,49.6,46,30.18,6.2,NNW,8.1,-,N/A,,Mostly Cloudy,330,2013-08-19 15:58:00
5:58 PM,68.7,48.2,48,30.19,6.2,North,8.1,-,N/A,,Overcast,350,2013-08-19 16:58:00
6:58 PM,67.3,49.8,53,30.22,6.2,NW,8.1,-,N/A,,Overcast,320,2013-08-19 17:58:00
7:58 PM,65.5,47.7,53,30.24,6.2,NNW,5.8,-,N/A,,Overcast,330,2013-08-19 18:58:00
8:58 PM,62.8,48.9,61,30.26,6.2,North,3.5,-,N/A,,Overcast,350,2013-08-19 19:58:00
9:58 PM,62.1,48.9,62,30.28,6.2,North,3.5,-,N/A,,Overcast,10,2013-08-19 20:58:00
10:58 PM,60.8,47.5,62,30.29,6.2,Calm,Calm,-,N/A,,Scattered Clouds,0,2013-08-19 21:58:00
11:58 PM,57.9,48.6,71,30.30,6.2,South,2.3,-,N/A,,Mostly Cloudy,190,2013-08-19 22:58:00